Dewpoint
39 39 38 38 38 39 39 39 38 38 39 40 40 40 40 41 41 41 41 41 41 41 41 41 40 40 40 40 40 40 40 40 40 40 39 39 39 39 39 39 39 38 37 37 37 38 38 38 38 37 37 38 38 38 38 38 38 38 39 39 40 40 41 41 42 43 44 44 44
38 38 38 37 37 38 39 39 38 39 39 40 40 41 41 41 40 40 40 40 41 40 40 40 40 39 39 39 39 39 39 38 38 37 37 37 36 36 36 36 36 35 35 35 36 36 36 36 36 36 36 36 36 36 36 36 37 38 39 40 40 41 42 43 44 44 45 46 46
38 38 38 38 38 38 38 39 39 39 39 40 40 41 41 40 40 40 40 40 40 40 39 39 38 38 38 38 38 37 37 37 36 36 36 36 36 36 36 36 36 35 35 35 35 36 36 36 35 35 35 35 35 36 36 37 39 40 40 41 42 43 44 44 45 46 46 46 47
37 37 37 37 37 37 38 38 39 39 40 40 40 40 40 40 40 40 39 39 39 39 38 38 37 37 37 37 37 37 37 36 36 37 37 37 37 37 37 37 37 36 36 36 36 36 36 36 36 35 35 36 36 37 39 40 42 43 44 44 44 45 45 46 46 46 46 47 47
36 37 37 37 37 38 38 39 39 39 39 39 39 39 39 39 39 39 39 38 38 38 38 37 37 37 37 37 38 38 38 38 37 37 38 38 38 38 38 38 38 37 37 37 37 36 36 36 36 37 37 39 40 41 42 44 44 44 45 45 45 46 46 46 46 46 46 46 46
37 37 37 37 37 38 38 39 39 39 39 38 38 38 38 38 38 38 38 38 38 38 38 38 38 38 38 39 39 39 39 39 38 39 39 39 39 39 39 39 38 38 38 38 37 37 37 38 38 39 40 41 42 43 43 43 44 44 45 45 46 45 45 44 44 44 44 43 42
37 37 36 36 37 37 37 38 38 38 38 38 37 38 38 38 38 38 38 38 39 39 38 38 39 39 39 40 40 40 40 40 40 40 40 40 40 40 39 39 38 38 38 38 38 38 39 39 39 40 40 41 42 41 41 41 42 43 44 44 44 43 42 41 42 41 40 40 40
37 36 36 36 36 36 36 36 37 37 37 37 37 37 38 38 38 38 39 39 39 39 39 39 40 40 40 40 40 40 40 40 40 40 40 40 40 39 39 38 38 37 37 38 38 38 39 39 39 39 40 41 41 40 39 38 39 39 40 40 40 40 40 40 39 39 38 38 38
36 36 36 36 36 36 36 36 36 37 37 37 37 37 38 38 39 39 39 39 39 40 40 40 40 40 40 40 40 40 40 40 40 40 40 40 39 39 38 37 37 37 37 37 38 38 38 38 38 38 39 40 39 38 37 36 36 36 37 37 37 37 37 37 37 37 37 36 36
35 35 35 35 36 36 36 36 36 37 37 37 37 37 38 38 39 39 39 39 40 40 40 41 40 40 40 40 40 40 40 40 40 40 39 39 39 38 37 37 37 37 37 37 37 37 37 36 37 37 37 38 37 36 36 36 35 35 35 36 35 35 35 35 35 35 35 35 35
35 35 35 35 35 35 36 36 36 36 36 36 37 37 38 38 39 39 39 40 40 40 40 40 40 40 40 40 40 40 40 40 39 39 39 39 38 38 37 37 37 36 36 36 36 36 36 36 36 35 35 36 35 35 35 35 35 35 34 35 34 34 34 33 34 34 34 34 34
35 35 35 35 35 35 35 35 35 36 36 36 36 37 38 38 39 39 39 40 40 40 40 40 40 39 39 39 39 39 39 39 38 38 38 38 38 38 37 36 36 36 35 35 35 35 35 35 35 34 34 35 35 35 34 34 34 33 33 33 33 32 32 32 32 33 34 34 33
35 35 35 35 35 35 35 35 35 35 36 36 36 37 38 39 39 39 39 40 40 39 39 39 39 38 38 38 39 39 38 38 38 37 37 37 37 37 37 36 35 35 35 35 35 35 35 34 33 33 33 33 34 34 33 33 32 32 31 31 31 31 31 31 31 32 32 33 32
35 35 35 35 35 35 35 35 35 35 36 36 37 37 38 39 39 39 39 39 39 39 38 38 38 38 38 38 38 38 37 37 37 37 36 36 36 36 36 35 35 34 34 34 34 33 33 33 33 33 32 32 32 33 33 32 31 31 31 30 30 30 30 30 30 31 31 31 31
34 34 34 34 34 34 34 34 35 35 36 36 37 37 38 38 38 38 38 38 38 38 38 37 37 37 37 37 37 36 36 36 36 35 35 35 35 35 35 35 35 34 34 33 33 32 32 32 32 32 32 32 31 32 32 32 31 30 30 29 29 28 28 28 29 29 29 29 30
34 34 34 34 34 34 34 34 35 35 36 36 37 37 37 38 38 38 38 38 37 37 37 36 36 36 36 35 35 35 35 35 35 34 34 34 34 34 34 34 34 34 33 32 32 32 32 32 32 31 31 31 31 31 31 30 29 29 28 28 28 28 28 28 28 29 29 29 30
33 33 33 34 34 34 34 34 35 35 35 36 36 37 37 37 37 37 37 37 36 36 35 35 35 35 34 34 34 34 34 33 33 33 33 33 33 33 33 33 33 32 32 32 31 31 31 31 31 31 31 30 30 30 30 29 29 29 28 28 28 28 28 28 28 29 29 30 30
33 33 33 33 33 34 34 34 35 35 35 35 35 36 36 36 36 36 36 35 35 35 34 33 33 33 33 32 33 33 33 32 32 32 32 32 32 32 32 32 32 32 31 31 31 31 30 31 31 31 30 30 30 30 30 30 29 29 28 28 27 27 27 27 27 28 28 29 30
33 33 33 33 33 34 34 34 34 34 35 35 35 35 35 35 35 35 34 34 34 33 33 32 32 32 32 31 32 32 32 31 31 31 31 31 31 31 31 31 31 31 31 31 31 30 31 31 31 31 31 31 30 30 29 29 29 28 28 27 26 26 26 26 26 26 26 27 27
33 33 33 33 33 33 33 33 34 34 34 34 34 34 33 33 33 32 32 32 32 32 31 31 31 31 31 31 31 31 30 30 30 30 30 30 30 30 30 30 30 30 30 30 30 30 30 29 30 31 31 31 30 29 28 28 27 27 26 26 24 24 24 24 23 23 23 23 23
33 33 33 33 33 32 32 33 32 32 32 32 32 32 32 31 31 31 31 30 31 30 30 30 29 29 29 29 29 29 29 29 29 29 29 29 29 29 29 29 29 29 29 28 29 29 29 28 30 30 31 30 29 28 27 27 26 25 24 23 22 22 22 21 21 20 19 19 19
32 32 32 32 32 32 31 31 31 31 31 31 31 31 30 30 30 29 29 29 29 29 28 28 28 28 28 29 28 28 28 28 29 29 29 29 29 29 29 28 28 28 27 27 27 27 27 28 29 30 30 28 27 26 26 26 24 23 22 22 21 19 18 18 18 17 17 17 17
32 32 32 31 31 31 31 30 30 29 29 29 29 29 29 28 28 28 28 27 27 27 27 27 28 28 28 28 28 28 28 28 28 28 28 28 28 28 28 27 27 27 27 27 27 26 26 26 27 28 27 26 25 24 24 24 23 22 20 19 18 17 17 17 17 17 17 17 18
32 32 31 31 31 30 30 29 28 28 28 28 27 27 27 27 27 27 27 26 26 26 26 26 27 27 27 27 28 28 28 27 27 27 27 27 27 27 27 26 26 26 26 28 29 28 27 26 26 26 26 24 23 23 23 23 22 20 19 18 17 17 17 17 17 17 17 18 18
32 31 31 31 30 30 29 28 28 27 27 27 26 26 26 26 26 26 26 26 26 26 26 26 26 26 27 27 27 27 27 27 27 26 27 27 27 27 26 26 26 26 27 29 33 34 33 30 29 27 24 22 22 22 22 22 21 19 18 17 17 17 17 17 17 17 18 18 18
31 31 31 31 30 29 29 28 27 27 27 26 26 26 26 26 26 26 26 26 26 26 26 25 25 26 26 26 26 26 26 26 26 26 26 26 26 26 26 26 25 26 29 32 35 35 35 34 33 29 25 21 21 21 21 20 20 19 18 18 17 17 17 17 17 18 18 18 18
31 31 31 30 30 29 28 28 27 27 26 26 26 26 26 26 26 26 26 26 26 26 26 25 26 26 26 26 26 26 26 26 26 26 25 25 25 25 25 25 24 26 30 34 35 35 35 34 33 30 26 22 20 19 19 19 19 19 18 17 17 17 17 17 17 18 18 17 17
30 30 30 30 29 28 28 27 27 27 26 26 26 26 26 26 26 26 26 26 26 26 26 26 26 26 26 26 26 25 25 25 25 25 25 25 25 25 24 23 23 26 30 34 35 35 34 33 31 30 27 24 20 19 19 18 18 18 18 17 17 17 17 17 17 17 17 17 16
30 30 29 29 28 28 27 27 26 26 26 26 26 26 27 26 26 26 26 26 26 26 26 26 26 26 26 26 25 25 24 24 25 26 26 26 25 25 24 22 22 25 29 33 34 34 33 31 30 28 26 24 22 19 17 17 17 17 17 17 17 18 18 17 17 17 17 16 15
30 29 29 28 27 27 27 26 26 26 26 26 27 27 27 26 26 26 26 26 26 26 26 26 26 25 25 24 24 24 24 25 25 25 25 26 26 25 24 23 22 24 27 31 32 33 32 31 29 28 26 26 23 20 17 16 16 16 17 17 17 17 17 17 17 17 16 15 14
29 28 28 27 27 27 26 26 26 26 26 27 26 26 26 26 25 25 25 25 26 26 25 25 24 24 24 24 24 24 24 24 24 24 23 24 23 23 22 22 22 22 25 29 31 31 31 30 28 27 27 26 25 21 17 17 16 17 17 18 18 17 17 17 16 16 15 14 14
28 28 27 27 26 26 26 26 26 26 26 26 26 26 26 25 25 24 24 25 25 25 25 24 24 23 22 22 22 22 22 22 22 22 22 22 22 22 22 23 22 24 26 29 31 31 31 30 28 28 28 28 26 22 20 18 18 18 18 18 18 18 17 17 16 15 15 14 14
28 27 27 26 26 26 26 26 26 26 26 26 26 26 26 25 24 24 23 24 24 24 24 24 22 22 21 21 21 21 21 21 21 21 22 22 22 23 24 25 24 26 29 31 31 31 31 29 28 28 28 29 26 22 20 18 19 19 19 19 18 18 17 17 16 15 15 14 14
27 27 26 25 25 25 25 25 25 25 25 26 26 26 25 24 23 22 22 22 24 24 24 22 22 21 21 21 21 21 21 21 21 22 22 23 23 24 25 25 25 28 31 32 31 31 30 29 28 28 29 29 26 22 20 20 20 19 19 18 17 17 17 16 16 15 15 14 14
26 26 25 24 25 25 25 24 25 25 25 26 25 25 24 23 22 22 22 22 23 23 22 21 21 21 21 21 21 21 22 21 21 22 22 23 24 24 24 24 25 28 31 31 31 31 30 29 29 29 29 28 25 22 21 20 19 19 18 17 17 16 16 16 16 16 15 15 14
26 25 24 24 24 24 24 24 25 25 25 25 25 24 23 22 22 22 22 22 22 21 20 20 20 21 21 21 22 22 22 21 21 22 22 23 23 23 23 23 24 26 29 30 30 30 30 29 29 29 29 27 23 21 20 19 18 17 17 16 16 16 16 16 16 16 16 15 15
25 24 24 24 24 24 24 25 25 25 25 24 24 23 22 21 21 21 21 21 20 19 19 19 20 21 21 22 21 21 21 21 21 21 22 23 23 23 23 23 23 25 26 27 27 28 29 29 29 29 28 25 21 20 19 18 17 16 15 15 15 15 15 16 16 16 16 15 16
24 23 23 23 24 24 25 25 25 25 24 24 23 22 22 21 20 20 20 21 19 18 18 19 20 21 21 21 21 21 21 21 21 21 22 22 22 23 22 22 22 23 24 25 25 26 27 29 29 29 27 23 21 20 19 18 16 15 15 14 14 14 15 15 16 16 16 15 18
24 23 23 23 24 25 25 26 25 25 24 23 22 22 21 20 20 20 21 21 19 19 19 20 21 21 22 21 21 21 21 21 21 21 21 21 22 22 22 21 20 20 21 23 25 26 26 28 29 29 27 24 22 21 20 18 16 15 14 14 14 15 15 15 16 16 16 15 20
25 24 24 24 25 26 26 26 26 25 24 22 22 21 21 20 20 21 22 21 19 19 19 20 21 22 22 21 20 20 20 20 21 21 20 20 20 21 21 19 18 18 19 22 25 26 26 26 27 27 26 23 22 21 20 19 17 15 15 15 15 16 16 16 16 17 17 16 19
25 25 25 26 26 26 26 26 25 23 22 22 21 21 21 21 21 21 21 20 19 19 20 21 22 21 21 20 20 19 19 19 20 20 19 19 19 19 19 17 17 17 17 22 24 25 25 25 25 25 24 23 22 21 20 19 17 16 16 16 16 17 17 17 17 17 17 17 17